[[{"header":{"parameterUnit":"m.s-1","parameterCategory":1,"la1":30.2991,"la2":30.254,"lo1":-89.0895,"lo2":-89.0444,"dy":0.0017,"dx":0.0017,"nx":28,"ny":28,"refTime":"2023-10-14T03:00:00:Z","depth":0,"parameterNumber":2,"parameterNumberName":"U-component_of_WINDS"},"data":[0,0,0,0,0,0,0,0,0,0,0,0,0,0,0,0,0,0,0,0,0,0,0,0,0,0,0,0,0,0,0,0,0,0,0,0,0,0,0,0,0,0,0,0,0,0,0,0,0,0,0,0,0,0,0,0,0,0,3.1115,3.1116,0,3.1261,3.1263,3.1265,3.1279,3.1278,3.1276,3.1275,3.1425,3.1431,3.1436,0,0,0,0,0,0,0,0,0,0,0,0,0,3.0848,3.0853,3.1115,3.1117,3.1118,3.1261,3.1263,3.1265,3.128,3.1278,3.1276,3.1274,3.1424,3.143,3.1437,0,0,0,0,0,0,0,0,0,0,0,0,0,3.0976,3.0855,3.1114,3.1143,3.1147,3.1261,3.1263,3.1266,3.128,3.1278,3.1276,3.1273,3.1422,3.1429,3.1437,3.1533,0,0,3.1462,3.1466,0,0,0,0,0,0,0,0,3.0969,3.0986,3.1137,3.1141,3.1146,3.125,3.1224,3.1355,3.1281,3.123,3.1275,3.1272,3.1369,3.1381,3.1414,3.154,3.1547,3.1463,3.1468,3.1471,3.1474,0,0,0,0,0,0,0,3.096,3.098,3.1173,3.1139,3.1145,3.1148,3.1164,3.1249,3.131,3.1234,3.1235,3.1252,3.1371,3.1406,3.1417,3.1549,3.1463,3.147,3.1475,3.1478,3.1761,3.1764,0,0,0,0,0,0,3.0946,3.0972,3.1168,3.1177,3.105,3.1155,3.1173,3.1219,3.1309,3.1321,3.1254,3.1252,3.1393,3.1408,3.1423,3.1541,3.1471,3.1479,3.1484,3.1759,3.1762,3.1765,0,0,0,0,0,0,3.094,3.0963,3.1162,3.1075,3.1101,3.1162,3.1214,3.1223,3.1258,3.1325,3.1336,3.1279,3.1392,3.1411,3.1506,3.1547,3.1483,3.149,3.1756,3.176,3.1763,3.1778,0,0,0,0,0,0,3.0932,3.0961,3.0998,3.1076,3.1105,3.1243,3.1216,3.1227,3.1272,3.1271,3.135,3.1362,3.1392,3.1493,3.1514,3.1557,3.1496,3.1752,3.1758,3.1762,3.1775,3.1782,3.1789,0,0,0,0,0,3.0923,3.0996,3.1,3.1023,3.1153,3.1245,3.1262,3.1295,3.1275,3.1313,3.1356,3.1359,3.1538,3.1503,3.1526,3.1572,3.175,3.1756,3.1762,3.1771,3.1781,3.1789,0,0,0,0,0,0,3.0922,3.1007,3.1012,3.1113,3.1171,3.1247,3.1296,3.1304,3.137,3.1366,3.1404,3.1422,3.1515,3.1553,3.1512,3.1669,3.1642,3.1653,3.1642,3.1651,3.1658,3.1648,3.1503,0,0,0,0,0,3.0933,3.1001,3.1072,3.1154,3.1183,3.1234,3.1276,3.1296,3.1358,3.1383,3.1433,3.1494,3.1564,3.1609,3.1678,3.178,3.1798,3.1823,3.183,3.1835,3.1845,3.1902,3.1914,3.1784,3.1784,3.1784,0,0,3.0958,3.1013,3.1053,3.1155,3.1203,3.1272,3.1255,3.1329,3.1381,3.1395,3.1487,3.1526,3.1596,3.1695,3.174,3.1729,3.1884,3.1843,3.1847,3.1854,3.1909,3.1922,3.1932,3.1789,3.1788,3.1787,0,0,3.1039,3.1086,3.1161,3.1209,3.1281,3.1315,3.1332,3.1407,3.1433,3.1527,3.1538,3.16,3.172,3.177,3.1811,3.191,3.1915,3.1931,3.1969,3.2024,3.2035,3.2044,3.208,3.2092,3.1939,3.1939,3.1939,0,3.106,3.1165,3.1198,3.1272,3.1316,3.1331,3.1407,3.1452,3.1543,3.1574,3.1559,3.171,3.1758,3.1869,3.1893,3.1925,3.1947,3.1922,3.203,3.204,3.2049,3.2084,3.2097,3.1941,3.1941,3.1941,3.194,0,3.1188,3.1261,3.1312,3.14,3.145,3.1524,3.1568,3.1615,3.1631,3.1666,3.176,3.1819,3.1899,3.1926,3.1942,3.204,3.203,3.2023,3.1996,3.2063,3.2096,3.2109,3.1943,3.1942,3.1942,3.1942,0,0,3.1274,3.1378,3.1396,3.1436,3.1517,3.1574,3.1649,3.1727,3.1767,3.1829,3.1893,3.1994,3.1987,3.2034,3.2055,3.2104,3.2179,3.209,3.2092,3.2105,3.229,3.2296,3.2311,3.2183,3.2185,3.2187,3.2285,0,3.1365,3.1498,3.153,3.1645,3.1712,3.1727,3.1792,3.1849,3.1883,3.1946,3.1984,3.2055,3.204,3.2068,3.2117,3.2159,3.2217,3.2153,3.2243,3.2246,3.2227,3.2329,3.2336,3.2425,3.2298,3.23,3.2302,0,3.1489,3.1553,3.1675,3.1747,3.1776,3.1835,3.1909,3.1968,3.2033,3.2054,3.2106,3.2122,3.2201,3.217,3.2279,3.2235,3.2273,3.23,3.2304,3.2315,3.2279,3.2343,3.2454,3.2468,3.2323,3.2321,3.2319,0,3.154,3.1658,3.1746,3.1779,3.1865,3.1906,3.1943,3.2005,3.205,3.2115,3.2145,3.2218,3.2258,3.2314,3.235,3.2324,3.2457,3.2428,3.2478,3.2477,3.2506,3.2504,3.2626,3.2529,3.2529,3.2529,3.2528,0,3.1639,3.1713,3.177,3.1824,3.1908,3.1942,3.2024,3.2062,3.2117,3.2179,3.2195,3.2253,3.2296,3.236,3.2389,3.2475,3.2493,3.2513,3.252,3.2512,3.251,3.2539,3.2534,3.2532,3.2531,3.2531,3.253,0,3.1712,3.1752,3.1849,3.1922,3.1942,3.2001,3.2063,3.2116,3.215,3.2229,3.2249,3.2303,3.2379,3.242,3.2515,3.2534,3.2631,3.2634,3.261,3.2613,3.266,3.2655,3.2806,3.2828,3.2715,3.2716,3.2717,0,3.1773,3.183,3.1909,3.1951,3.199,3.2058,3.2104,3.214,3.2187,3.2264,3.2309,3.2385,3.2449,3.2569,3.2617,3.269,3.2696,3.2743,3.2707,3.2697,3.2698,3.2694,3.27,3.275,3.2751,3.2752,3.2753,0,3.1877,3.1894,3.196,3.2032,3.2087,3.2146,3.2204,3.2238,3.2283,3.2335,3.2413,3.2462,3.2559,3.2635,3.2712,3.2751,3.276,3.2763,3.2779,3.2772,3.2756,3.2766,3.2628,3.276,3.2759,3.2759,3.2759,3.2758,3.1947,3.1999,3.2062,3.2134,3.2182,3.2235,3.2289,3.233,3.2395,3.2477,3.2494,3.2576,3.2639,3.2742,3.2783,3.2848,3.2839,3.2861,3.2867,3.2872,3.2874,3.2745,3.2862,3.2862,3.2862,3.2862,3.2861,0,3.2053,3.2094,3.216,3.2241,3.2298,3.23,3.2365,3.2412,3.2484,3.2542,3.2604,3.2693,3.2766,3.282,3.2895,3.2937,3.2943,3.2955,3.2953,3.2962,3.2878,3.2857,3.2949,3.2949,3.2949,3.2949,3.2949,3.2949,3.2115,3.2203,3.2227,3.2339,3.2379,3.246,3.2496,3.2546,3.2592,3.2691,3.2752,3.2786,3.2842,3.2921,3.2989,3.3003,3.303,3.3043,3.3057,3.2977,3.2968,3.2959,3.294,3.3048,3.3048,3.3136,3.3137,3.3137]},{"header":{"parameterUnit":"m.s-1","parameterCategory":1,"la1":30.2991,"la2":30.254,"lo1":-89.0895,"lo2":-89.0444,"dy":0.0017,"dx":0.0017,"nx":28,"ny":28,"refTime":"2023-10-14T03:00:00:Z","depth":0,"parameterNumber":3,"parameterNumberName":"V-component_of_WINDS"},"data":[0,0,0,0,0,0,0,0,0,0,0,0,0,0,0,0,0,0,0,0,0,0,0,0,0,0,0,0,0,0,0,0,0,0,0,0,0,0,0,0,0,0,0,0,0,0,0,0,0,0,0,0,0,0,0,0,0,0,-0.2152,-0.2151,0,-0.2054,-0.2052,-0.2051,-0.2033,-0.2034,-0.2035,-0.2035,-0.1932,-0.1929,-0.1925,0,0,0,0,0,0,0,0,0,0,0,0,0,-0.2323,-0.232,-0.2153,-0.2151,-0.215,-0.2054,-0.2052,-0.2051,-0.2033,-0.2034,-0.2035,-0.2036,-0.1933,-0.1929,-0.1925,0,0,0,0,0,0,0,0,0,0,0,0,0,-0.2239,-0.2319,-0.2153,-0.2129,-0.2126,-0.2054,-0.2052,-0.2051,-0.2033,-0.2034,-0.2035,-0.2036,-0.1935,-0.193,-0.1924,-0.1868,0,0,-0.1908,-0.1906,0,0,0,0,0,0,0,0,-0.2244,-0.2233,-0.2134,-0.2131,-0.2127,-0.2057,-0.2075,-0.1989,-0.2032,-0.2068,-0.2035,-0.2037,-0.1973,-0.1964,-0.1943,-0.1863,-0.1859,-0.1908,-0.1905,-0.1903,-0.1901,0,0,0,0,0,0,0,-0.225,-0.2237,-0.2113,-0.2133,-0.2128,-0.2123,-0.2112,-0.2058,-0.2015,-0.2065,-0.2064,-0.2052,-0.1971,-0.1948,-0.194,-0.1857,-0.1908,-0.1903,-0.19,-0.1898,-0.1725,-0.1723,0,0,0,0,0,0,-0.226,-0.2242,-0.2116,-0.211,-0.219,-0.2119,-0.2107,-0.2078,-0.2015,-0.2007,-0.2051,-0.2052,-0.1957,-0.1947,-0.1937,-0.1866,-0.1903,-0.1898,-0.1895,-0.1726,-0.1725,-0.1723,0,0,0,0,0,0,-0.2264,-0.2249,-0.212,-0.2176,-0.2159,-0.2115,-0.2082,-0.2076,-0.2053,-0.2005,-0.1997,-0.2036,-0.1957,-0.1944,-0.1885,-0.1862,-0.1895,-0.1891,-0.1728,-0.1726,-0.1724,-0.1724,0,0,0,0,0,0,-0.2269,-0.2251,-0.2229,-0.2175,-0.2156,-0.2071,-0.2081,-0.2073,-0.2044,-0.2044,-0.1988,-0.198,-0.1957,-0.1893,-0.188,-0.1855,-0.1886,-0.173,-0.1727,-0.1724,-0.1726,-0.1722,-0.1719,0,0,0,0,0,-0.2275,-0.2233,-0.2228,-0.2213,-0.2129,-0.207,-0.2059,-0.2033,-0.2042,-0.202,-0.1989,-0.1982,-0.1867,-0.1887,-0.1872,-0.1846,-0.1731,-0.1728,-0.1725,-0.1727,-0.1723,-0.1719,0,0,0,0,0,0,-0.2285,-0.2226,-0.222,-0.2159,-0.212,-0.2067,-0.2038,-0.2029,-0.1986,-0.1987,-0.1957,-0.1944,-0.1887,-0.186,-0.1884,-0.1787,-0.1799,-0.1793,-0.1807,-0.1802,-0.1798,-0.1806,-0.1882,0,0,0,0,0,-0.228,-0.2238,-0.2188,-0.2139,-0.212,-0.2082,-0.2056,-0.204,-0.1997,-0.198,-0.1945,-0.1904,-0.1858,-0.1829,-0.1784,-0.1722,-0.1709,-0.1696,-0.1693,-0.169,-0.1685,-0.1649,-0.1643,-0.1712,-0.1712,-0.1712,0,0,-0.2269,-0.2232,-0.2207,-0.214,-0.2108,-0.2064,-0.2068,-0.2022,-0.1989,-0.1973,-0.1915,-0.1888,-0.184,-0.1779,-0.175,-0.1755,-0.1663,-0.1686,-0.1684,-0.168,-0.1645,-0.1639,-0.1633,-0.171,-0.171,-0.1711,0,0,-0.2227,-0.2195,-0.2151,-0.2118,-0.2069,-0.2044,-0.2034,-0.1982,-0.1963,-0.1905,-0.1892,-0.1852,-0.1774,-0.174,-0.1712,-0.1657,-0.1649,-0.1643,-0.1625,-0.1591,-0.1585,-0.158,-0.156,-0.1553,-0.1638,-0.1638,-0.1638,0,-0.222,-0.2155,-0.2129,-0.2083,-0.2054,-0.2038,-0.1992,-0.1961,-0.19,-0.188,-0.1886,-0.1788,-0.1754,-0.1685,-0.1671,-0.165,-0.1636,-0.1649,-0.1588,-0.1583,-0.1578,-0.1558,-0.1551,-0.1638,-0.1638,-0.1638,-0.1638,0,-0.2148,-0.2102,-0.2072,-0.2014,-0.1981,-0.1936,-0.1902,-0.1872,-0.1858,-0.1833,-0.1773,-0.1732,-0.1679,-0.1661,-0.1647,-0.1589,-0.1594,-0.1595,-0.1606,-0.1571,-0.1552,-0.1545,-0.1637,-0.1638,-0.1638,-0.1638,0,0,-0.211,-0.2037,-0.2027,-0.2,-0.1944,-0.1908,-0.1861,-0.1809,-0.1784,-0.1742,-0.1701,-0.1636,-0.1636,-0.1605,-0.1587,-0.1557,-0.1515,-0.1561,-0.156,-0.1554,-0.1448,-0.1447,-0.1439,-0.151,-0.1508,-0.1507,-0.1452,0,-0.2061,-0.1978,-0.1953,-0.1883,-0.184,-0.1824,-0.1783,-0.1744,-0.1718,-0.1678,-0.1649,-0.1603,-0.1608,-0.1589,-0.1558,-0.1527,-0.1493,-0.1531,-0.1471,-0.1469,-0.1483,-0.1429,-0.1428,-0.1378,-0.1444,-0.1443,-0.1442,0,-0.1993,-0.195,-0.1876,-0.1825,-0.1806,-0.177,-0.172,-0.1682,-0.1637,-0.162,-0.1586,-0.157,-0.152,-0.1535,-0.1465,-0.149,-0.1465,-0.1445,-0.1443,-0.1436,-0.1453,-0.142,-0.1362,-0.1354,-0.143,-0.1431,-0.1432,0,-0.1972,-0.1895,-0.1841,-0.1818,-0.1758,-0.1733,-0.1706,-0.1663,-0.1633,-0.1589,-0.1569,-0.152,-0.1493,-0.1455,-0.1426,-0.144,-0.1359,-0.1371,-0.1343,-0.1344,-0.1326,-0.1328,-0.1262,-0.131,-0.1311,-0.1311,-0.1311,0,-0.192,-0.1875,-0.183,-0.1797,-0.1746,-0.1717,-0.1667,-0.164,-0.1601,-0.1561,-0.1544,-0.1507,-0.1472,-0.143,-0.1407,-0.1352,-0.134,-0.1325,-0.1319,-0.1326,-0.1328,-0.1308,-0.1311,-0.1309,-0.1309,-0.131,-0.131,0,-0.1887,-0.1856,-0.1795,-0.1743,-0.1729,-0.1693,-0.1648,-0.1615,-0.1589,-0.1538,-0.1525,-0.1484,-0.1433,-0.1401,-0.1337,-0.1322,-0.1261,-0.1257,-0.1277,-0.1274,-0.1247,-0.125,-0.1167,-0.1154,-0.1211,-0.1211,-0.121,0,-0.1856,-0.1821,-0.1765,-0.1737,-0.1711,-0.1667,-0.1636,-0.1606,-0.1575,-0.1521,-0.1494,-0.1442,-0.14,-0.132,-0.1284,-0.1234,-0.1228,-0.1203,-0.1221,-0.1229,-0.1227,-0.123,-0.1226,-0.12,-0.1199,-0.1199,-0.1198,0,-0.1803,-0.179,-0.1747,-0.1698,-0.1662,-0.1622,-0.1582,-0.156,-0.1524,-0.1489,-0.1438,-0.1405,-0.1339,-0.1288,-0.1235,-0.1207,-0.1196,-0.1193,-0.1184,-0.119,-0.1203,-0.1195,-0.1268,-0.1195,-0.1195,-0.1196,-0.1196,-0.1196,-0.177,-0.1738,-0.1694,-0.1646,-0.1613,-0.1576,-0.1541,-0.1511,-0.1468,-0.1412,-0.1397,-0.1343,-0.1298,-0.1226,-0.1197,-0.1154,-0.1157,-0.1144,-0.1141,-0.1138,-0.1137,-0.121,-0.1145,-0.1145,-0.1145,-0.1145,-0.1145,0,-0.1716,-0.1687,-0.1643,-0.1588,-0.155,-0.1544,-0.1499,-0.1468,-0.1421,-0.138,-0.1338,-0.1279,-0.1229,-0.1189,-0.1137,-0.111,-0.1104,-0.1098,-0.1099,-0.1093,-0.1137,-0.115,-0.1104,-0.1104,-0.1104,-0.1104,-0.1104,-0.1104,-0.1684,-0.1629,-0.161,-0.1538,-0.1508,-0.1456,-0.1431,-0.1396,-0.1363,-0.1298,-0.1256,-0.1231,-0.119,-0.1135,-0.1089,-0.1078,-0.106,-0.1055,-0.1043,-0.1085,-0.109,-0.1094,-0.1106,-0.1051,-0.1051,-0.1002,-0.1002,-0.1001]}]]